Location: Unspecified
(0.0000°N, 0.0000°E)
Time: 01:47:18
(UTC+00:00)

N. Korean satellite - Visible Passes

Search period start: 09 August 2022 00:00
Search period end: 19 August 2022 00:00
Orbit: 433 x 471 km, 97.3° (Epoch: 08 August)

Date Brightness Start Highest point End Pass type
(mag) Time Alt. Az. Time Alt. Az. Time Alt. Az.
09 Aug 6.6 05:04:09 10° N 05:07:33 51° WNW 05:10:46 11° SSW visible
10 Aug 8.0 04:30:03 10° NE 04:33:16 35° E 04:36:05 12° SSE visible
11 Aug 7.9 05:28:54 10° NNW 05:31:29 20° W 05:34:04 10° SW visible
12 Aug 6.3 04:53:39 10° N 04:57:08 82° WNW 05:00:20 12° SSW visible
13 Aug 8.8 04:19:57 10° NE 04:22:45 23° E 04:25:33 10° SSE visible
14 Aug 7.4 05:17:48 10° NNW 05:20:52 29° W 05:23:54 10° SW visible
15 Aug 6.9 04:42:59 10° NNE 04:46:25 61° E 04:49:38 11° S visible
16 Aug 9.4 04:09:50 10° ENE 04:11:56 15° E 04:14:02 10° SE visible
17 Aug 6.7 05:06:36 10° N 05:09:56 45° W 05:13:15 10° SSW visible
18 Aug 7.9 04:32:10 10° NNE 04:35:23 37° E 04:38:35 10° S visible
